STARLINK-2024 (47606 NORAD) Tracking and Keplerian Element Data

This shows tracking and keplerian element data for the satellite.

Feedback or suggestion? Click here.




ElementValue
Catalog47606
NameSTARLINK-2024
Epoch Orbit183
Epoch Day56.91667824
Epoch Year2021
RAAN17.6136
Inclination53.0534
Eccentricity0.0001323
Argument of Perigee85.8419
Mean Anonmoly294.3914
Mean Motion15.62810135
Decay Rate-0.00110606
L11 47606U 21009BL 21056.91667824 -.00110606 00000-0 -12159-2 0 9998
L22 47606 53.0534 17.6136 0001323 85.8419 294.3914 15.62810135 1839

Live tracking and technical data element details for STARLINK-2024 (NORAD 47606). STARLINK-2024 can be tracked NOW for your location showing map with azimuth and elevation plus other details from your city location.

Track the satellite on the map from your city or location and see movement details for azimuth, elevation, latitude, longitude, range, height, and movement on the map or in text.







IsCatalogInMostPopularTable: catalog: 47606, numindb: 1
Update: records affected: 1



GetName: 47606 STARLINK-2024

Hit Count: updated at: Fri, 26 Feb 2021 10:01:54 GMT